Regional Weather Roundup
Issued by NWS

Home | Current Version | Previous Version | Text Only | Print | Product List | Glossary On
Versions: 1 2 3 4 5 6 7 8 9 10 11 12 13 14 15 16 17 18 19 20 21 22 23 24 25 26 27 28 29 30 31 32 33 34 35 36 37 38 39 40 41 42 43 44 45 46 47 48 49 50
000
ASUS43 KLMK 160110
RWRKY
KENTUCKY REGIONAL WEATHER ROUNDUP
NATIONAL WEATHER SERVICE LOUISVILLE KY
800 PM EST FRI DEC 15 2017

NOTE "FAIR" INDICATES FEW OR NO CLOUDS BELOW 12,000 FEET
WITH NO SIGNIFICANT WEATHER AND/OR OBSTRUCTIONS TO VISIBILITY.

KYZ001>023-026-027-061>063-070>075-160200-
WESTERN AND SOUTH CENTRAL KENTUCKY

CITY           SKY/WX    TMP DP  RH WIND       PRES   REMARKS
PADUCAH        CLEAR     40  25  55 S3        30.12S
HENDERSON      CLOUDY    37  27  67 S3        30.13S
OWENSBORO      CLOUDY    37  27  67 SW5       30.14R WCI  33
HOPKINSVILLE   CLEAR     38  23  54 S7        30.14S WCI  33
BOWLING GREEN  CLOUDY    38  24  57 S6        30.15F WCI  33
GLASGOW        CLOUDY    36  24  60 SW3       30.15S
$$

KYZ024-025-028>034-038-045-046-053-160200-
NORTH CENTRAL KENTUCKY

CITY           SKY/WX    TMP DP  RH WIND       PRES   REMARKS
LOUISVILLE/SDF CLOUDY    36  23  59 SW7       30.12R WCI  30
LOUISVILLE/LOU CLOUDY    34  23  64 SW6       30.13R WCI  29
FORT KNOX      CLOUDY    33  22  63 SW5       30.10R WCI  29
$$

KYZ035>037-039>044-047>052-055>060-089>105-160200-
NORTHEAST KENTUCKY

CITY           SKY/WX    TMP DP  RH WIND       PRES   REMARKS
LEXINGTON      CLOUDY    34  22  61 SW8       30.11R WCI  27
COVINGTON      CLOUDY    31  22  69 SW6       30.08R WCI  25
FRANKFORT      CLOUDY    35  21  56 SW7       30.10R WCI  29
$$

KYZ054-064>069-076>088-106>120-160200-
SOUTHEAST KENTUCKY

CITY           SKY/WX    TMP DP  RH WIND       PRES   REMARKS
JACKSON        CLOUDY    30  20  66 CALM      30.11R
LONDON         CLOUDY    32  20  61 S7        30.14R WCI  26
SOMERSET       CLOUDY    32  21  64 W7        30.17R WCI  26
MIDDLESBORO    CLOUDY    29  22  74 CALM      30.17R
MONTICELLO     CLOUDY    33  23  66 VRB7      30.18R WCI  27
$$





USA.gov is the U.S. government's official web portal to all federal, state and local government web resources and services.